QAK641 MMAA-MMDO

Flight info

Callsign QAK641
Flight time N/A
Altitude 35000
Route AGLON1B AGLON UJ3 ALIPO UJ17 MLM/N0458F360 UJ63 DGO
Aircraft A320/M-SDE3FGHIRWY/LB1

Departure

Time 2026-04-20 02:52
Airport General Juan N. Álvarez International Airport (MMAA)

Arrival

Time N/A
Airport General Guadalupe Victoria International Airport (MMDO)
Time Latitude Longitude Altitude Speed Heading
2026-04-20 02:21 16.75963 -99.75560 22 ft 0 kts 197°
2026-04-20 02:42 16.75968 -99.75559 21 ft 2 kts 196°
2026-04-20 02:42 16.75986 -99.75554 23 ft 3 kts 190°
2026-04-20 02:42 16.76006 -99.75551 23 ft 3 kts 179°
2026-04-20 02:42 16.76026 -99.75553 25 ft 3 kts 154°
2026-04-20 02:43 16.76039 -99.75563 22 ft 2 kts 109°
2026-04-20 02:43 16.76041 -99.75569 22 ft 0 kts 107°
2026-04-20 02:45 16.76040 -99.75568 22 ft 2 kts 107°
2026-04-20 02:45 16.76029 -99.75529 21 ft 6 kts 107°
2026-04-20 02:45 16.76016 -99.75486 21 ft 8 kts 107°
2026-04-20 02:46 16.76001 -99.75436 22 ft 6 kts 112°
2026-04-20 02:46 16.75984 -99.75401 21 ft 5 kts 111°
2026-04-20 02:46 16.75951 -99.75357 21 ft 8 kts 155°
2026-04-20 02:46 16.75905 -99.75342 21 ft 5 kts 149°
2026-04-20 02:47 16.75888 -99.75311 21 ft 4 kts 111°
2026-04-20 02:47 16.75878 -99.75279 21 ft 8 kts 107°
2026-04-20 02:47 16.75849 -99.75187 21 ft 18 kts 108°
2026-04-20 02:47 16.75808 -99.75056 22 ft 20 kts 108°
2026-04-20 02:48 16.75764 -99.74915 20 ft 21 kts 108°
2026-04-20 02:48 16.75718 -99.74766 20 ft 22 kts 108°
2026-04-20 02:48 16.75669 -99.74610 22 ft 23 kts 108°
2026-04-20 02:48 16.75617 -99.74448 21 ft 24 kts 110°
2026-04-20 02:49 16.75563 -99.74280 22 ft 25 kts 108°
2026-04-20 02:49 16.75509 -99.74105 22 ft 26 kts 107°
2026-04-20 02:49 16.75455 -99.73924 22 ft 27 kts 108°
2026-04-20 02:49 16.75397 -99.73738 23 ft 27 kts 108°
2026-04-20 02:50 16.75344 -99.73571 21 ft 16 kts 109°
2026-04-20 02:50 16.75308 -99.73457 21 ft 17 kts 108°
2026-04-20 02:50 16.75264 -99.73342 21 ft 17 kts 128°
2026-04-20 02:50 16.75163 -99.73346 21 ft 15 kts 199°
2026-04-20 02:51 16.75109 -99.73365 22 ft 11 kts 198°
2026-04-20 02:51 16.75106 -99.73441 20 ft 24 kts 291°
2026-04-20 02:51 16.75232 -99.73862 21 ft 94 kts 289°
2026-04-20 02:51 16.75500 -99.74704 22 ft 148 kts 288°
2026-04-20 02:52 16.75852 -99.75832 326 ft 163 kts 288°
2026-04-20 02:52 16.76195 -99.76958 922 ft 164 kts 287°
2026-04-20 02:52 16.76545 -99.78093 1482 ft 165 kts 288°
2026-04-20 02:52 16.76907 -99.79261 1876 ft 178 kts 288°
2026-04-20 02:53 16.77316 -99.80567 2106 ft 201 kts 288°
2026-04-20 02:53 16.77779 -99.82034 2339 ft 225 kts 288°
2026-04-20 02:53 16.78294 -99.83664 2648 ft 249 kts 288°
2026-04-20 02:53 16.78862 -99.85458 3115 ft 267 kts 288°
2026-04-20 02:54 16.79673 -99.87211 3830 ft 273 kts 311°
2026-04-20 02:54 16.81222 -99.88332 4583 ft 276 kts 341°
2026-04-20 02:54 16.83078 -99.88886 5352 ft 279 kts 345°
2026-04-20 02:54 16.84965 -99.89406 6125 ft 282 kts 346°
2026-04-20 02:55 16.86879 -99.89924 6849 ft 286 kts 346°
2026-04-20 02:55 16.88816 -99.90449 7584 ft 289 kts 346°
2026-04-20 02:55 16.90771 -99.90984 8316 ft 292 kts 346°
2026-04-20 02:55 16.92763 -99.91533 9035 ft 295 kts 346°
2026-04-20 02:56 16.94730 -99.92092 9741 ft 298 kts 343°
2026-04-20 02:56 16.96599 -99.93067 10364 ft 304 kts 325°
2026-04-20 02:56 16.98314 -99.94477 10607 ft 325 kts 322°
2026-04-20 02:56 17.00128 -99.96022 10749 ft 347 kts 322°
2026-04-20 02:57 17.02053 -99.97679 11126 ft 359 kts 321°
2026-04-20 02:57 17.03965 -99.99326 11692 ft 363 kts 322°
2026-04-20 02:57 17.05925 -100.01010 12301 ft 366 kts 322°
2026-04-20 02:57 17.07930 -100.02726 12931 ft 369 kts 323°
2026-04-20 02:58 17.09926 -100.04434 13510 ft 372 kts 323°
2026-04-20 02:58 17.11936 -100.06152 14080 ft 375 kts 323°
2026-04-20 02:58 17.13970 -100.07888 14619 ft 379 kts 323°
2026-04-20 02:58 17.16019 -100.09637 15154 ft 381 kts 323°
2026-04-20 02:59 17.18079 -100.11398 15669 ft 384 kts 322°
2026-04-20 02:59 17.20159 -100.13177 16183 ft 387 kts 322°
2026-04-20 02:59 17.22249 -100.14965 16681 ft 390 kts 322°
2026-04-20 02:59 17.24353 -100.16767 17173 ft 393 kts 321°
2026-04-20 03:00 17.25737 -100.17954 17500 ft 395 kts 321°